[[{"header":{"parameterUnit":"m.s-1","parameterCategory":2,"la1":30.2991,"la2":30.254,"lo1":-89.0895,"lo2":-89.0444,"dy":0.0017,"dx":0.0017,"nx":28,"ny":28,"refTime":"2023-09-28T21:00:00:Z","depth":"0","parameterNumber":2,"parameterNumberName":"U-component_of_CURRENTS"},"data":[0,0,0,0,0,0,0,0,0,0,0,0,0,0,0,0,0,0,0,0,0,0,0,0,0,0,0,0,0,0,0,0,0,0,0,0,0,0,0,0,0,0,0,0,0,0,0,0,0,0,0,0,0,0,0,0,0,0,-0.2111,-0.2111,0,-0.211,-0.211,-0.2109,-0.207,-0.207,-0.2069,-0.2068,-0.194,-0.1937,-0.1934,0,0,0,0,0,0,0,0,0,0,0,0,0,-0.2044,-0.2045,-0.2111,-0.2111,-0.2111,-0.211,-0.211,-0.2109,-0.207,-0.207,-0.2069,-0.2068,-0.1941,-0.1937,-0.1934,0,0,0,0,0,0,0,0,0,0,0,0,0,-0.2058,-0.2046,-0.2111,-0.2095,-0.2093,-0.211,-0.211,-0.2109,-0.2071,-0.207,-0.2069,-0.2068,-0.1942,-0.1938,-0.1934,-0.1928,0,0,-0.1921,-0.1919,0,0,0,0,0,0,0,0,-0.2057,-0.206,-0.2097,-0.2096,-0.2094,-0.2092,-0.2039,-0.2044,-0.2071,-0.2076,-0.2068,-0.2067,-0.1982,-0.1975,-0.1973,-0.1922,-0.1917,-0.1921,-0.1918,-0.1916,-0.1915,0,0,0,0,0,0,0,-0.2056,-0.206,-0.2107,-0.2097,-0.2096,-0.2076,-0.2076,-0.204,-0.2029,-0.2075,-0.2073,-0.2079,-0.198,-0.1978,-0.197,-0.1915,-0.1921,-0.1917,-0.1914,-0.1913,-0.183,-0.1831,0,0,0,0,0,0,-0.2067,-0.2059,-0.2107,-0.2107,-0.2077,-0.2078,-0.2079,-0.2091,-0.2033,-0.2025,-0.208,-0.2077,-0.1985,-0.1975,-0.1965,-0.1951,-0.1916,-0.1912,-0.191,-0.183,-0.183,-0.1831,0,0,0,0,0,0,-0.2066,-0.2071,-0.2107,-0.2085,-0.2089,-0.2081,-0.2095,-0.2092,-0.2089,-0.2038,-0.2027,-0.208,-0.1984,-0.1971,-0.1941,-0.1945,-0.191,-0.1907,-0.183,-0.183,-0.183,-0.1925,0,0,0,0,0,0,-0.2064,-0.2071,-0.208,-0.2086,-0.2091,-0.2121,-0.2096,-0.2093,-0.2096,-0.2092,-0.2035,-0.2022,-0.1982,-0.1948,-0.1937,-0.1939,-0.1903,-0.1829,-0.183,-0.183,-0.1921,-0.1928,-0.1934,0,0,0,0,0,-0.2061,-0.207,-0.2081,-0.2086,-0.2105,-0.2123,-0.2123,-0.211,-0.2097,-0.2102,-0.2067,-0.2024,-0.1943,-0.1946,-0.1933,-0.1933,-0.1829,-0.183,-0.183,-0.1918,-0.1927,-0.1934,0,0,0,0,0,0,-0.2035,-0.2068,-0.2079,-0.2095,-0.2115,-0.2117,-0.2115,-0.2117,-0.2096,-0.2084,-0.2034,-0.202,-0.1996,-0.1952,-0.1956,-0.191,-0.1876,-0.1874,-0.1947,-0.1955,-0.1961,-0.1955,-0.19,0,0,0,0,0,-0.2041,-0.2063,-0.2089,-0.2105,-0.2112,-0.2119,-0.2123,-0.2123,-0.2111,-0.2101,-0.2068,-0.2023,-0.199,-0.1964,-0.1929,-0.1905,-0.1895,-0.1894,-0.19,-0.1906,-0.1892,-0.1891,-0.1897,-0.1833,-0.1833,-0.1833,0,0,-0.2041,-0.2057,-0.2073,-0.2102,-0.2109,-0.2127,-0.2116,-0.2128,-0.2139,-0.2088,-0.2077,-0.2048,-0.1991,-0.197,-0.1953,-0.1932,-0.1929,-0.1907,-0.1913,-0.1894,-0.1893,-0.1899,-0.1905,-0.1833,-0.1833,-0.1833,0,0,-0.2046,-0.2062,-0.2083,-0.2097,-0.212,-0.213,-0.2139,-0.2151,-0.2147,-0.2149,-0.2113,-0.2093,-0.2039,-0.2009,-0.1983,-0.2002,-0.1971,-0.1983,-0.2003,-0.2004,-0.201,-0.2014,-0.2061,-0.2069,-0.1979,-0.198,-0.198,0,-0.2041,-0.207,-0.209,-0.2104,-0.2117,-0.2135,-0.2155,-0.216,-0.2164,-0.2162,-0.215,-0.2102,-0.2057,-0.2035,-0.2034,-0.2017,-0.2023,-0.1984,-0.2015,-0.2019,-0.2022,-0.2068,-0.2075,-0.1984,-0.1984,-0.1983,-0.1983,0,-0.207,-0.2081,-0.2087,-0.2121,-0.2142,-0.2156,-0.2179,-0.2192,-0.2194,-0.2199,-0.2191,-0.2155,-0.2119,-0.2109,-0.2069,-0.2065,-0.207,-0.2036,-0.2002,-0.2035,-0.2081,-0.2087,-0.1991,-0.1989,-0.1988,-0.1987,0,0,-0.2064,-0.2104,-0.2101,-0.2115,-0.2148,-0.2168,-0.2191,-0.2217,-0.2233,-0.2232,-0.2241,-0.2199,-0.2184,-0.2152,-0.2119,-0.211,-0.2155,-0.2075,-0.2073,-0.2134,-0.2193,-0.2201,-0.2209,-0.2126,-0.2126,-0.2127,-0.2237,0,-0.2071,-0.2111,-0.2128,-0.2155,-0.2172,-0.2192,-0.2214,-0.224,-0.2258,-0.2271,-0.2245,-0.224,-0.22,-0.2191,-0.2176,-0.2146,-0.2165,-0.213,-0.2138,-0.2139,-0.2152,-0.2213,-0.2004,-0.2082,-0.2242,-0.2243,-0.2244,0,-0.2078,-0.2105,-0.2143,-0.2172,-0.2181,-0.2203,-0.2249,-0.2273,-0.2295,-0.2305,-0.2304,-0.2289,-0.2272,-0.2236,-0.2229,-0.2208,-0.2202,-0.2194,-0.2197,-0.2164,-0.2156,-0.2062,-0.2087,-0.2018,-0.2253,-0.2252,-0.2251,0,-0.207,-0.21,-0.2135,-0.2145,-0.2192,-0.2206,-0.2236,-0.2278,-0.2306,-0.2331,-0.2354,-0.2338,-0.2337,-0.2315,-0.2302,-0.2259,-0.2316,-0.2259,-0.2282,-0.2285,-0.2084,-0.2069,-0.2042,-0.2271,-0.2271,-0.2271,-0.2271,0,-0.2063,-0.207,-0.2128,-0.2144,-0.2182,-0.2208,-0.2255,-0.2287,-0.2326,-0.2359,-0.2365,-0.2396,-0.2351,-0.2376,-0.2343,-0.2353,-0.2361,-0.23,-0.2307,-0.2118,-0.2105,-0.2015,-0.2017,-0.2275,-0.2274,-0.2273,-0.2273,0,-0.2027,-0.2066,-0.2099,-0.2158,-0.2179,-0.2207,-0.2275,-0.2307,-0.235,-0.2395,-0.2404,-0.2445,-0.2477,-0.2477,-0.2469,-0.2425,-0.2366,-0.2436,-0.225,-0.2231,-0.2143,-0.2158,-0.2171,-0.2128,-0.2449,-0.2449,-0.245,0,-0.2006,-0.2023,-0.2117,-0.2153,-0.2174,-0.2223,-0.2261,-0.2315,-0.2348,-0.2429,-0.2441,-0.2507,-0.2531,-0.2571,-0.2488,-0.2475,-0.243,-0.2313,-0.2175,-0.2129,-0.215,-0.2156,-0.2118,-0.197,-0.1967,-0.1964,-0.1962,0,-0.195,-0.1994,-0.2039,-0.2141,-0.2187,-0.224,-0.2289,-0.2314,-0.2367,-0.2408,-0.2474,-0.2506,-0.2528,-0.2403,-0.2402,-0.2359,-0.2195,-0.2259,-0.2215,-0.1788,-0.1781,-0.1744,-0.1963,-0.1937,-0.194,-0.1941,-0.1943,-0.1944,-0.1904,-0.1934,-0.2021,-0.2095,-0.2177,-0.2224,-0.2203,-0.2248,-0.2279,-0.2243,-0.2375,-0.2319,-0.2239,-0.2176,-0.2173,-0.198,-0.2081,-0.1834,-0.187,-0.1895,-0.1794,-0.2013,-0.1992,-0.1994,-0.1996,-0.1998,-0.2,0,-0.1847,-0.189,-0.1967,-0.2066,-0.2136,-0.2181,-0.219,-0.2112,-0.2079,-0.2072,-0.2064,-0.1941,-0.1807,-0.1763,-0.1597,-0.154,-0.1492,-0.1526,-0.1409,-0.14,-0.1553,-0.1466,-0.1322,-0.1322,-0.1322,-0.1322,-0.1322,-0.1323,-0.1822,-0.1847,-0.1888,-0.1973,-0.2047,-0.2005,-0.196,-0.1857,-0.1778,-0.1626,-0.1525,-0.151,-0.1468,-0.1429,-0.128,-0.1235,-0.1213,-0.1184,-0.1318,-0.1321,-0.1349,-0.1376,-0.129,-0.1112,-0.1112,-0.1007,-0.1006,-0.1006]},{"header":{"parameterUnit":"m.s-1","parameterCategory":2,"la1":30.2991,"la2":30.254,"lo1":-89.0895,"lo2":-89.0444,"dy":0.0017,"dx":0.0017,"nx":28,"ny":28,"refTime":"2023-09-28T21:00:00:Z","depth":"0","parameterNumber":3,"parameterNumberName":"V-component_of_CURRENTS"},"data":[0,0,0,0,0,0,0,0,0,0,0,0,0,0,0,0,0,0,0,0,0,0,0,0,0,0,0,0,0,0,0,0,0,0,0,0,0,0,0,0,0,0,0,0,0,0,0,0,0,0,0,0,0,0,0,0,0,0,-0.0568,-0.0568,0,-0.0574,-0.0575,-0.0575,-0.0558,-0.0558,-0.0557,-0.0556,-0.0497,-0.0496,-0.0495,0,0,0,0,0,0,0,0,0,0,0,0,0,-0.0567,-0.0567,-0.0568,-0.0568,-0.0568,-0.0574,-0.0575,-0.0575,-0.0558,-0.0558,-0.0557,-0.0556,-0.0497,-0.0496,-0.0495,0,0,0,0,0,0,0,0,0,0,0,0,0,-0.0571,-0.0567,-0.0568,-0.056,-0.056,-0.0574,-0.0575,-0.0575,-0.0558,-0.0558,-0.0557,-0.0556,-0.0497,-0.0496,-0.0494,-0.0502,0,0,-0.049,-0.0489,0,0,0,0,0,0,0,0,-0.057,-0.0571,-0.0561,-0.0561,-0.056,-0.0564,-0.0552,-0.0547,-0.0559,-0.056,-0.0556,-0.0555,-0.0513,-0.051,-0.0515,-0.0499,-0.0497,-0.0489,-0.0488,-0.0488,-0.0487,0,0,0,0,0,0,0,-0.057,-0.0571,-0.0571,-0.0562,-0.0561,-0.0565,-0.0564,-0.0552,-0.054,-0.0559,-0.0558,-0.0558,-0.0512,-0.0517,-0.0514,-0.0496,-0.0489,-0.0488,-0.0487,-0.0486,-0.0459,-0.0459,0,0,0,0,0,0,-0.0568,-0.057,-0.0571,-0.0571,-0.0563,-0.0566,-0.0565,-0.0564,-0.0542,-0.0538,-0.0559,-0.0557,-0.052,-0.0516,-0.0511,-0.0498,-0.0488,-0.0486,-0.0485,-0.0458,-0.0459,-0.0459,0,0,0,0,0,0,-0.0568,-0.0568,-0.0571,-0.057,-0.0571,-0.0566,-0.0566,-0.0565,-0.0567,-0.0542,-0.0537,-0.0561,-0.0519,-0.0514,-0.05,-0.0496,-0.0486,-0.0484,-0.0458,-0.0458,-0.0459,-0.0484,0,0,0,0,0,0,-0.0568,-0.0568,-0.057,-0.057,-0.0571,-0.0578,-0.0567,-0.0565,-0.0568,-0.0566,-0.0542,-0.0536,-0.0518,-0.0503,-0.0499,-0.0494,-0.0483,-0.0458,-0.0458,-0.0459,-0.0483,-0.0485,-0.0487,0,0,0,0,0,-0.0568,-0.0574,-0.057,-0.0571,-0.0573,-0.0578,-0.0579,-0.0573,-0.0569,-0.0572,-0.0557,-0.0537,-0.0502,-0.0502,-0.0497,-0.0491,-0.0458,-0.0458,-0.0459,-0.0482,-0.0485,-0.0487,0,0,0,0,0,0,-0.058,-0.0573,-0.0569,-0.0574,-0.0575,-0.0575,-0.058,-0.0577,-0.0571,-0.0566,-0.0543,-0.0536,-0.0525,-0.0507,-0.0508,-0.0485,-0.0475,-0.0475,-0.0495,-0.0497,-0.0499,-0.0486,-0.0482,0,0,0,0,0,-0.0583,-0.0584,-0.058,-0.0586,-0.0585,-0.0584,-0.0586,-0.0582,-0.0575,-0.0572,-0.0557,-0.0538,-0.0525,-0.051,-0.0499,-0.0486,-0.0469,-0.0478,-0.048,-0.0482,-0.0468,-0.0456,-0.0456,-0.046,-0.046,-0.046,0,0,-0.059,-0.0588,-0.0588,-0.0588,-0.0589,-0.0584,-0.0583,-0.0587,-0.058,-0.0566,-0.0555,-0.0549,-0.0526,-0.0515,-0.0506,-0.0496,-0.0474,-0.0483,-0.0485,-0.0469,-0.0457,-0.0456,-0.0456,-0.0461,-0.0461,-0.0461,0,0,-0.0601,-0.0601,-0.06,-0.0595,-0.0593,-0.0592,-0.0593,-0.0591,-0.0588,-0.0582,-0.057,-0.056,-0.0541,-0.0522,-0.051,-0.0515,-0.0493,-0.0514,-0.0503,-0.0493,-0.0492,-0.0491,-0.0476,-0.0474,-0.0506,-0.0506,-0.0506,0,-0.061,-0.0604,-0.0604,-0.0596,-0.0591,-0.0593,-0.0588,-0.0586,-0.0581,-0.0581,-0.0578,-0.056,-0.0541,-0.0522,-0.0518,-0.0518,-0.0509,-0.0497,-0.0495,-0.0494,-0.0493,-0.0477,-0.0474,-0.0508,-0.0508,-0.0507,-0.0507,0,-0.061,-0.0603,-0.0604,-0.0591,-0.0589,-0.0588,-0.0579,-0.0583,-0.0583,-0.0581,-0.0577,-0.056,-0.0546,-0.0541,-0.0526,-0.0508,-0.0505,-0.0508,-0.0489,-0.0494,-0.0478,-0.0474,-0.051,-0.0509,-0.0509,-0.0508,0,0,-0.0629,-0.0609,-0.0605,-0.0602,-0.0583,-0.059,-0.0578,-0.0578,-0.0589,-0.0575,-0.0583,-0.0551,-0.0551,-0.0536,-0.0524,-0.0503,-0.0487,-0.0496,-0.0495,-0.048,-0.0462,-0.035,-0.0335,-0.0495,-0.0494,-0.0494,-0.0457,0,-0.0628,-0.0624,-0.0603,-0.0596,-0.0597,-0.0584,-0.0581,-0.058,-0.0588,-0.0599,-0.0577,-0.058,-0.0546,-0.0551,-0.0522,-0.0505,-0.0478,-0.0496,-0.0458,-0.0457,-0.0356,-0.0327,-0.0281,-0.0234,-0.0453,-0.0452,-0.0452,0,-0.0627,-0.0626,-0.0624,-0.0615,-0.0613,-0.0607,-0.0621,-0.0618,-0.0622,-0.0628,-0.0616,-0.061,-0.0572,-0.0557,-0.0495,-0.0511,-0.0477,-0.0458,-0.0456,-0.0334,-0.0336,-0.0262,-0.0219,-0.0133,-0.0446,-0.0447,-0.0447,0,-0.0659,-0.0638,-0.0645,-0.0637,-0.0628,-0.0628,-0.0627,-0.0633,-0.0655,-0.0652,-0.0673,-0.0627,-0.0622,-0.0564,-0.049,-0.0503,-0.0426,-0.0448,-0.0312,-0.0305,-0.0245,-0.0231,-0.0107,-0.0398,-0.0398,-0.0399,-0.0399,0,-0.0671,-0.0671,-0.0664,-0.0667,-0.069,-0.0662,-0.0696,-0.0692,-0.0707,-0.0745,-0.0693,-0.0712,-0.0625,-0.057,-0.05,-0.0369,-0.0426,-0.0287,-0.0276,-0.0251,-0.024,-0.0144,-0.0124,-0.0397,-0.0397,-0.0398,-0.0398,0,-0.0704,-0.0694,-0.071,-0.0706,-0.071,-0.0732,-0.0752,-0.0791,-0.0775,-0.0824,-0.0824,-0.0782,-0.0683,-0.0568,-0.0476,-0.0379,-0.0201,-0.0219,-0.018,-0.0162,0.0066,0.0081,0.0233,0.028,-0.0066,-0.0063,-0.006,0,-0.0715,-0.0732,-0.0758,-0.0796,-0.0795,-0.0822,-0.0859,-0.0842,-0.0885,-0.0875,-0.0912,-0.0815,-0.0745,-0.0519,-0.0313,-0.0117,-0.0088,0.0021,0.0024,0.0121,0.0143,0.0144,0.0171,0.0073,0.0076,0.0079,0.0082,0,-0.0748,-0.0768,-0.0792,-0.0884,-0.0928,-0.0979,-0.1015,-0.105,-0.1039,-0.1045,-0.1035,-0.0961,-0.0678,-0.0407,-0.0095,0.0004,0.0111,0.009,0.0165,0.027,0.0301,0.0337,0.0,0.0108,0.0105,0.0103,0.0102,0.0101,-0.0778,-0.0824,-0.089,-0.0978,-0.1054,-0.1143,-0.1182,-0.1191,-0.1227,-0.1183,-0.1109,-0.0901,-0.0481,-0.0014,0.0106,0.0411,0.0339,0.0464,0.0473,0.0463,0.0538,0.029,0.0435,0.0434,0.0433,0.0433,0.0432,0,-0.0822,-0.0892,-0.0987,-0.1111,-0.1247,-0.1241,-0.1306,-0.1316,-0.1331,-0.1158,-0.106,-0.0533,-0.0147,0.0221,0.0654,0.0779,0.0757,0.0807,0.0784,0.0789,0.0548,0.0587,0.0803,0.0803,0.0803,0.0803,0.0803,0.0803,-0.0855,-0.0954,-0.1019,-0.1263,-0.1366,-0.1487,-0.1516,-0.1476,-0.1335,-0.1019,-0.0658,-0.0358,0.0159,0.0727,0.1041,0.1048,0.1093,0.1102,0.1117,0.0918,0.0885,0.0853,0.0895,0.1173,0.1173,0.1341,0.1343,0.1345]}],[{"header":{"parameterUnit":"m.s-1","parameterCategory":2,"la1":30.2991,"la2":30.254,"lo1":-89.0895,"lo2":-89.0444,"dy":0.0017,"dx":0.0017,"nx":28,"ny":28,"refTime":"2023-09-28T21:00:00:Z","depth":"2","parameterNumber":2,"parameterNumberName":"U-component_of_CURRENTS"},"data":[0,0,0,0,0,0,0,0,0,0,0,0,0,0,0,0,0,0,0,0,0,0,0,0,0,0,0,0,0,0,0,0,0,0,0,0,0,0,0,0,0,0,0,0,0,0,0,0,0,0,0,0,0,0,0,0,0,0,-0.0762,-0.0762,0,-0.0761,-0.0761,-0.076,-0.0834,-0.0837,-0.0839,-0.0841,-0.0858,-0.0856,-0.0854,0,0,0,0,0,0,0,0,0,0,0,0,0,-0.0878,-0.0875,-0.0762,-0.0762,-0.0763,-0.0761,-0.0761,-0.076,-0.0834,-0.0837,-0.084,-0.0842,-0.0859,-0.0856,-0.0854,0,0,0,0,0,0,0,0,0,0,0,0,0,-0.0842,-0.0874,-0.0762,-0.0803,-0.0807,-0.0762,-0.0761,-0.076,-0.0833,-0.0837,-0.084,-0.0844,-0.0859,-0.0857,-0.0854,-0.0764,0,0,-0.0846,-0.0844,0,0,0,0,0,0,0,0,-0.0844,-0.0837,-0.0796,-0.08,-0.0805,-0.0806,-0.0809,-0.0764,-0.0832,-0.0818,-0.0841,-0.0846,-0.0843,-0.0842,-0.0826,-0.0765,-0.0766,-0.0845,-0.0844,-0.0843,-0.0842,0,0,0,0,0,0,0,-0.0846,-0.0838,-0.0756,-0.0797,-0.0802,-0.084,-0.0838,-0.08,-0.0806,-0.0819,-0.0826,-0.0833,-0.0845,-0.0828,-0.0827,-0.0766,-0.0845,-0.0843,-0.0841,-0.084,-0.0776,-0.0776,0,0,0,0,0,0,-0.0849,-0.0839,-0.0756,-0.0757,-0.084,-0.0835,-0.0833,-0.0798,-0.0806,-0.0812,-0.083,-0.0837,-0.0831,-0.083,-0.0828,-0.0832,-0.0843,-0.084,-0.0838,-0.0776,-0.0776,-0.0776,0,0,0,0,0,0,-0.0851,-0.084,-0.0756,-0.0806,-0.0799,-0.0829,-0.079,-0.0796,-0.0822,-0.0815,-0.0822,-0.0857,-0.0834,-0.0832,-0.0817,-0.083,-0.0839,-0.0836,-0.0776,-0.0776,-0.0776,-0.077,0,0,0,0,0,0,-0.0853,-0.0839,-0.087,-0.0804,-0.0796,-0.0746,-0.0787,-0.0793,-0.0821,-0.0831,-0.0838,-0.0842,-0.0837,-0.0821,-0.0814,-0.0826,-0.0834,-0.0776,-0.0776,-0.0776,-0.077,-0.0769,-0.0769,0,0,0,0,0,-0.0857,-0.0874,-0.087,-0.0864,-0.0816,-0.0746,-0.0744,-0.0777,-0.0819,-0.0817,-0.0827,-0.0844,-0.0818,-0.0817,-0.081,-0.0821,-0.0776,-0.0776,-0.0776,-0.077,-0.0769,-0.0769,0,0,0,0,0,0,-0.0958,-0.0881,-0.0876,-0.0876,-0.0822,-0.0761,-0.0794,-0.0788,-0.079,-0.084,-0.0818,-0.0818,-0.0815,-0.0811,-0.0811,-0.0805,-0.0808,-0.0807,-0.0807,-0.0806,-0.0805,-0.0841,-0.0832,0,0,0,0,0,-0.0984,-0.0959,-0.0887,-0.0882,-0.0867,-0.0829,-0.083,-0.0838,-0.0813,-0.0822,-0.0797,-0.0804,-0.0796,-0.0799,-0.0782,-0.0759,-0.0819,-0.0771,-0.077,-0.077,-0.0794,-0.0861,-0.087,-0.0775,-0.0775,-0.0775,0,0,-0.1001,-0.0978,-0.0955,-0.0902,-0.0875,-0.0836,-0.0838,-0.0843,-0.0829,-0.082,-0.0804,-0.0793,-0.0788,-0.0772,-0.0773,-0.0779,-0.0835,-0.0769,-0.0769,-0.0795,-0.0862,-0.0872,-0.0881,-0.0775,-0.0775,-0.0775,0,0,-0.1007,-0.1014,-0.0986,-0.0973,-0.0959,-0.0902,-0.0903,-0.0841,-0.0851,-0.0807,-0.082,-0.0812,-0.0764,-0.0768,-0.0767,-0.0749,-0.0824,-0.0757,-0.0786,-0.0849,-0.0859,-0.0867,-0.0991,-0.101,-0.0763,-0.0763,-0.0763,0,-0.1039,-0.1014,-0.097,-0.0976,-0.0976,-0.0923,-0.0901,-0.0879,-0.0821,-0.0838,-0.0816,-0.0786,-0.0763,-0.0781,-0.0774,-0.075,-0.0829,-0.0786,-0.0852,-0.0861,-0.087,-0.0994,-0.1016,-0.0763,-0.0763,-0.0763,-0.0763,0,-0.1015,-0.1042,-0.1037,-0.099,-0.0965,-0.0961,-0.0905,-0.0893,-0.0872,-0.0856,-0.0861,-0.0807,-0.0802,-0.0786,-0.0767,-0.0822,-0.0875,-0.0839,-0.0858,-0.088,-0.1009,-0.1032,-0.0762,-0.0762,-0.0762,-0.0763,0,0,-0.0974,-0.0997,-0.1016,-0.1026,-0.1006,-0.096,-0.095,-0.0909,-0.0942,-0.0889,-0.0926,-0.086,-0.0863,-0.0862,-0.0839,-0.0879,-0.099,-0.0893,-0.0896,-0.1027,-0.1205,-0.109,-0.1105,-0.0978,-0.0981,-0.0983,-0.1283,0,-0.0969,-0.0963,-0.0987,-0.0984,-0.0961,-0.0975,-0.0947,-0.0944,-0.0934,-0.0958,-0.0962,-0.0975,-0.0885,-0.0901,-0.0918,-0.0975,-0.1047,-0.0917,-0.1156,-0.1164,-0.1066,-0.1123,-0.0953,-0.1191,-0.1306,-0.131,-0.1312,0,-0.098,-0.096,-0.0955,-0.0982,-0.0979,-0.0987,-0.0985,-0.0966,-0.1024,-0.1024,-0.1056,-0.1085,-0.1131,-0.1051,-0.1166,-0.11,-0.1161,-0.12,-0.1212,-0.1124,-0.1089,-0.1179,-0.1229,-0.1351,-0.1348,-0.1345,-0.1343,0,-0.0949,-0.0981,-0.0967,-0.0989,-0.0971,-0.1018,-0.0998,-0.1024,-0.1044,-0.1113,-0.1182,-0.1208,-0.1279,-0.1314,-0.1376,-0.13,-0.1554,-0.1454,-0.1427,-0.1424,-0.1333,-0.1313,-0.1575,-0.1575,-0.1574,-0.1573,-0.1572,0,-0.0973,-0.0984,-0.0986,-0.0992,-0.0989,-0.1017,-0.105,-0.1042,-0.1127,-0.122,-0.1236,-0.1339,-0.1354,-0.1501,-0.1492,-0.1549,-0.1649,-0.1469,-0.1485,-0.1326,-0.1302,-0.1464,-0.1446,-0.1584,-0.1582,-0.158,-0.1578,0,-0.0991,-0.0991,-0.0976,-0.0977,-0.0988,-0.0997,-0.1058,-0.1112,-0.1175,-0.1323,-0.1377,-0.1509,-0.1656,-0.171,-0.1834,-0.1721,-0.1771,-0.1783,-0.1619,-0.1603,-0.158,-0.1559,-0.1757,-0.1755,-0.1754,-0.1752,-0.1751,0,-0.0975,-0.0995,-0.0952,-0.094,-0.0975,-0.0997,-0.1033,-0.1092,-0.1191,-0.1435,-0.1554,-0.1772,-0.1857,-0.1972,-0.1859,-0.1853,-0.1889,-0.1683,-0.143,-0.1598,-0.1596,-0.1577,-0.1559,-0.1362,-0.1358,-0.1355,-0.1352,0,-0.0977,-0.1,-0.098,-0.0933,-0.0984,-0.0987,-0.1094,-0.1176,-0.1342,-0.149,-0.1754,-0.1862,-0.1956,-0.1812,-0.1759,-0.1712,-0.1627,-0.1604,-0.1897,-0.1282,-0.1232,-0.1226,-0.1222,-0.1322,-0.1325,-0.1327,-0.1329,-0.133,-0.0985,-0.0994,-0.0992,-0.0939,-0.0977,-0.1034,-0.1052,-0.1223,-0.1375,-0.157,-0.1744,-0.1768,-0.1734,-0.1476,-0.1456,-0.1404,-0.1468,-0.1327,-0.1337,-0.135,-0.119,-0.1132,-0.1181,-0.1183,-0.1185,-0.1187,-0.1188,0,-0.0966,-0.0998,-0.0983,-0.0952,-0.098,-0.0985,-0.1124,-0.1163,-0.1339,-0.1431,-0.1525,-0.1338,-0.1197,-0.1217,-0.105,-0.0981,-0.0968,-0.0958,-0.0923,-0.0953,-0.098,-0.0798,-0.0689,-0.0688,-0.0686,-0.0685,0,0,-0.0971,-0.0974,-0.0956,-0.0951,-0.0947,-0.0994,-0.1048,-0.1121,-0.1162,-0.1148,-0.1078,-0.102,-0.1086,-0.0828,-0.0799,-0.0728,-0.0837,-0.0699,-0.1092,-0.1078,-0.1103,-0.1179,-0.0931,0,0,0,0,0]},{"header":{"parameterUnit":"m.s-1","parameterCategory":2,"la1":30.2991,"la2":30.254,"lo1":-89.0895,"lo2":-89.0444,"dy":0.0017,"dx":0.0017,"nx":28,"ny":28,"refTime":"2023-09-28T21:00:00:Z","depth":"2","parameterNumber":3,"parameterNumberName":"V-component_of_CURRENTS"},"data":[0,0,0,0,0,0,0,0,0,0,0,0,0,0,0,0,0,0,0,0,0,0,0,0,0,0,0,0,0,0,0,0,0,0,0,0,0,0,0,0,0,0,0,0,0,0,0,0,0,0,0,0,0,0,0,0,0,0,-0.0005,-0.0004,0,0.0085,0.0086,0.0087,0.005,0.0048,0.0046,0.0044,0.0012,0.0013,0.0014,0,0,0,0,0,0,0,0,0,0,0,0,0,-0.0128,-0.0126,-0.0005,-0.0004,-0.0003,0.0084,0.0086,0.0087,0.0051,0.0048,0.0046,0.0043,0.0011,0.0013,0.0014,0,0,0,0,0,0,0,0,0,0,0,0,0,-0.006,-0.0125,-0.0005,-0.001,-0.001,0.0084,0.0086,0.0087,0.0051,0.0048,0.0045,0.0042,0.0011,0.0012,0.0014,0.0088,0,0,0.0019,0.002,0,0,0,0,0,0,0,0,-0.0064,-0.0056,-0.0011,-0.001,-0.0009,0.0053,0.003,0.0081,0.0052,0.0028,0.0044,0.004,0.0017,0.0018,0.0043,0.0086,0.0085,0.0019,0.002,0.0021,0.0021,0,0,0,0,0,0,0,-0.0069,-0.0059,0.003,-0.0009,-0.0008,0.001,0.0016,0.0041,0.0037,0.003,0.0027,0.0039,0.0016,0.0042,0.0042,0.0084,0.0019,0.0021,0.0022,0.0022,0.006,0.006,0,0,0,0,0,0,-0.008,-0.0064,0.0027,0.0033,-0.0045,0.0015,0.0021,0.0036,0.0039,0.0037,0.0041,0.0037,0.0041,0.004,0.004,0.0022,0.0021,0.0023,0.0023,0.006,0.006,0.006,0,0,0,0,0,0,-0.0083,-0.0072,0.0024,-0.0014,-0.0001,0.0019,0.0038,0.004,0.0031,0.0049,0.0044,0.0026,0.0038,0.0038,0.0041,0.0024,0.0023,0.0025,0.006,0.006,0.006,0.0053,0,0,0,0,0,0,-0.0087,-0.0074,-0.0096,-0.0014,0.0001,0.0057,0.0041,0.0044,0.0045,0.0039,0.0036,0.0031,0.0035,0.0038,0.0042,0.0026,0.0026,0.006,0.006,0.006,0.0053,0.0052,0.0052,0,0,0,0,0,-0.0091,-0.0107,-0.0098,-0.0088,-0.002,0.0057,0.0066,0.007,0.0047,0.0049,0.0046,0.003,0.004,0.0041,0.0045,0.0029,0.006,0.006,0.006,0.0053,0.0052,0.0052,0,0,0,0,0,0,-0.0185,-0.0108,-0.0098,-0.0095,-0.0033,0.005,0.0042,0.0061,0.0067,0.0031,0.0049,0.0046,0.0044,0.0043,0.0044,0.0038,0.004,0.0041,0.0034,0.0033,0.0033,0.0015,0.0027,0,0,0,0,0,-0.0208,-0.0191,-0.011,-0.0105,-0.0082,-0.002,-0.0002,0.0007,0.004,0.0037,0.0053,0.0049,0.006,0.0047,0.0065,0.0069,0.0072,0.0055,0.0055,0.0054,0.0042,0.0055,0.0055,0.006,0.006,0.006,0,0,-0.0229,-0.0197,-0.0183,-0.0123,-0.0081,-0.004,-0.0019,0.0002,0.0022,0.0033,0.0046,0.0059,0.0066,0.0072,0.0067,0.0056,0.0055,0.0054,0.0054,0.0042,0.0055,0.0055,0.0054,0.006,0.006,0.006,0,0,-0.025,-0.0245,-0.023,-0.0187,-0.0139,-0.0091,-0.0089,-0.0015,-0.0009,0.0029,0.0031,0.0039,0.0065,0.007,0.0073,0.0083,0.0066,0.0067,0.0035,0.0048,0.0047,0.0047,0.005,0.005,0.005,0.005,0.005,0,-0.0291,-0.0261,-0.0213,-0.0192,-0.0163,-0.0115,-0.0086,-0.0056,0.0007,0.0012,0.0017,0.0065,0.0071,0.0076,0.0065,0.0082,0.0073,0.0037,0.0047,0.0046,0.0046,0.005,0.005,0.0049,0.0049,0.005,0.005,0,-0.0279,-0.0274,-0.0263,-0.0212,-0.0174,-0.0149,-0.0086,-0.0069,-0.0049,-0.0016,0.0006,0.0045,0.0063,0.0066,0.0064,0.0055,0.0046,0.006,0.0047,0.0045,0.0049,0.0049,0.0049,0.0049,0.0049,0.0049,0,0,-0.031,-0.0263,-0.0262,-0.0246,-0.0192,-0.0148,-0.0128,-0.0077,-0.008,-0.0028,-0.0011,0.0021,0.0027,0.0031,0.004,0.0039,0.0036,0.0025,0.0026,0.0026,0.0042,0.0139,0.0149,0.0038,0.0038,0.0038,0.0046,0,-0.0313,-0.0287,-0.0256,-0.0222,-0.0195,-0.0157,-0.0129,-0.01,-0.0072,-0.0049,-0.0022,-0.0005,0.0017,0.0012,0.0021,0.003,0.0034,0.0031,0.0045,0.0045,0.0131,0.0153,0.0111,0.0123,0.0046,0.0046,0.0046,0,-0.0313,-0.0291,-0.0271,-0.0227,-0.0211,-0.0195,-0.0157,-0.013,-0.011,-0.009,-0.0073,-0.0056,-0.0048,-0.0022,0.0005,-0.0009,0.0007,0.0024,0.0025,0.0117,0.0144,0.0113,0.0126,0.0046,0.0046,0.0046,0.0046,0,-0.0345,-0.0303,-0.0293,-0.0277,-0.0222,-0.0221,-0.0191,-0.0165,-0.0159,-0.0137,-0.0146,-0.0104,-0.0103,-0.0064,-0.0024,-0.003,0.001,0.0019,0.0131,0.0137,0.0107,0.0112,0.0044,0.0044,0.0044,0.0044,0.0044,0,-0.0371,-0.0352,-0.0319,-0.0312,-0.0297,-0.0257,-0.0259,-0.0222,-0.0217,-0.0249,-0.0189,-0.02,-0.0122,-0.0091,-0.0041,0.0055,0.0006,0.0131,0.0153,0.0106,0.0111,0.0047,0.0047,0.0044,0.0044,0.0044,0.0044,0,-0.041,-0.0394,-0.0372,-0.0333,-0.032,-0.0318,-0.0296,-0.0313,-0.0296,-0.0337,-0.0344,-0.0292,-0.0227,-0.0121,-0.0052,0.0034,0.0118,0.0162,0.0108,0.0126,0.0233,0.0232,0.0284,0.0288,0.0291,0.0294,0.0296,0,-0.0416,-0.0432,-0.0392,-0.0395,-0.0387,-0.0379,-0.0387,-0.0354,-0.0382,-0.0409,-0.0442,-0.0383,-0.0326,-0.0125,0.0032,0.0195,0.0187,0.0264,0.0279,0.0245,0.026,0.0255,0.0251,0.0217,0.0218,0.0219,0.022,0,-0.0448,-0.0462,-0.0448,-0.0457,-0.0474,-0.0465,-0.0479,-0.0511,-0.0527,-0.0552,-0.0587,-0.0544,-0.033,-0.0126,0.0146,0.0225,0.0249,0.0298,0.0254,0.0194,0.0191,0.0204,0.0199,0.023,0.0229,0.0228,0.0228,0.0227,-0.0475,-0.0497,-0.0521,-0.0516,-0.0544,-0.058,-0.0611,-0.064,-0.0689,-0.072,-0.0662,-0.054,-0.034,0.0082,0.0215,0.0358,0.036,0.0394,0.0385,0.0376,0.0399,0.0406,0.0486,0.0487,0.0487,0.0488,0.0488,0,-0.0503,-0.0547,-0.057,-0.06,-0.0661,-0.0635,-0.0697,-0.0749,-0.0835,-0.0726,-0.0681,-0.043,-0.0153,0.0068,0.0298,0.0441,0.0378,0.0469,0.0348,0.0339,0.0331,0.0346,0.0422,0.0422,0.0422,0.0423,0,0,-0.0535,-0.0579,-0.059,-0.0699,-0.0735,-0.0836,-0.0884,-0.0937,-0.0881,-0.0771,-0.0597,-0.0348,-0.0096,0.0069,0.0221,0.033,0.0294,0.0333,0.0371,0.02,0.019,0.0276,0.0291,0,0,0,0,0]}],[{"header":{"parameterUnit":"m.s-1","parameterCategory":2,"la1":30.2991,"la2":30.254,"lo1":-89.0895,"lo2":-89.0444,"dy":0.0017,"dx":0.0017,"nx":28,"ny":28,"refTime":"2023-09-28T21:00:00:Z","depth":"4","parameterNumber":2,"parameterNumberName":"U-component_of_CURRENTS"},"data":[0,0,0,0,0,0,0,0,0,0,0,0,0,0,0,0,0,0,0,0,0,0,0,0,0,0,0,0,0,0,0,0,0,0,0,0,0,0,0,0,0,0,0,0,0,0,0,0,0,0,0,0,0,0,0,0,0,0,-0.0273,-0.0273,0,-0.0311,-0.0311,-0.0312,-0.0339,-0.0339,-0.0339,-0.0339,-0.0379,-0.038,-0.038,0,0,0,0,0,0,0,0,0,0,0,0,0,-0.0254,-0.0254,-0.0273,-0.0273,-0.0273,-0.0311,-0.0311,-0.0312,-0.0339,-0.0339,-0.0339,-0.0339,-0.0378,-0.0379,-0.0381,0,0,0,0,0,0,0,0,0,0,0,0,0,-0.0275,-0.0254,-0.0273,-0.029,-0.0292,-0.0311,-0.0311,-0.0312,-0.0339,-0.0339,-0.0339,-0.0339,-0.0378,-0.0379,-0.0381,-0.0386,0,0,-0.0385,-0.0386,0,0,0,0,0,0,0,0,-0.0274,-0.0276,-0.0287,-0.0289,-0.0291,-0.0319,-0.0319,-0.0337,-0.0339,-0.0322,-0.0339,-0.0339,-0.0358,-0.0361,-0.037,-0.0388,-0.039,-0.0385,-0.0386,-0.0387,-0.0387,0,0,0,0,0,0,0,-0.0273,-0.0275,-0.0289,-0.0288,-0.029,-0.0307,-0.031,-0.0323,-0.034,-0.0324,-0.0326,-0.0328,-0.0359,-0.0368,-0.0371,-0.039,-0.0385,-0.0386,-0.0387,-0.0388,-0.0406,-0.0406,0,0,0,0,0,0,-0.0264,-0.0273,-0.0288,-0.029,-0.0282,-0.0307,-0.0311,-0.0311,-0.034,-0.0344,-0.0328,-0.0329,-0.0366,-0.0369,-0.0372,-0.0381,-0.0387,-0.0388,-0.0389,-0.0406,-0.0406,-0.0406,0,0,0,0,0,0,-0.0263,-0.0265,-0.0286,-0.0282,-0.0286,-0.0307,-0.0308,-0.0312,-0.0322,-0.0342,-0.0347,-0.0334,-0.0366,-0.037,-0.0378,-0.0382,-0.0389,-0.039,-0.0407,-0.0406,-0.0406,-0.0398,0,0,0,0,0,0,-0.0262,-0.0264,-0.0261,-0.0281,-0.0285,-0.0295,-0.0307,-0.0312,-0.0322,-0.0325,-0.0349,-0.0353,-0.0366,-0.0376,-0.038,-0.0384,-0.0391,-0.0407,-0.0407,-0.0406,-0.0398,-0.0397,-0.0396,0,0,0,0,0,-0.0262,-0.0259,-0.0261,-0.0263,-0.0281,-0.0295,-0.0299,-0.0316,-0.0322,-0.0326,-0.0338,-0.0352,-0.0374,-0.0377,-0.0381,-0.0387,-0.0408,-0.0407,-0.0406,-0.0399,-0.0397,-0.0396,0,0,0,0,0,0,-0.0248,-0.0262,-0.0264,-0.0265,-0.0277,-0.0299,-0.0306,-0.0315,-0.0328,-0.0331,-0.0349,-0.0353,-0.0359,-0.0371,-0.0374,-0.0388,-0.0393,-0.0393,-0.0386,-0.0384,-0.0383,-0.0407,-0.0392,0,0,0,0,0,-0.0242,-0.0244,-0.0259,-0.0259,-0.0266,-0.0285,-0.0292,-0.0304,-0.0318,-0.0325,-0.034,-0.0353,-0.0359,-0.037,-0.0377,-0.039,-0.0419,-0.0394,-0.0393,-0.0391,-0.0413,-0.0452,-0.0457,-0.0403,-0.0403,-0.0403,0,0,-0.0236,-0.0243,-0.0244,-0.0256,-0.0269,-0.0282,-0.029,-0.0303,-0.0313,-0.0326,-0.0343,-0.0346,-0.0358,-0.0368,-0.0372,-0.0381,-0.0419,-0.039,-0.0389,-0.0412,-0.0452,-0.0457,-0.0462,-0.0402,-0.0402,-0.0403,0,0,-0.0232,-0.0232,-0.0238,-0.0249,-0.0265,-0.0278,-0.028,-0.0302,-0.0311,-0.0322,-0.033,-0.0336,-0.0353,-0.0364,-0.0371,-0.0366,-0.0404,-0.0365,-0.039,-0.0427,-0.0432,-0.0437,-0.0472,-0.0481,-0.0373,-0.0373,-0.0373,0,-0.022,-0.0234,-0.0242,-0.0253,-0.0262,-0.0275,-0.0287,-0.0298,-0.0318,-0.0331,-0.0326,-0.0355,-0.0353,-0.0377,-0.0372,-0.0365,-0.0398,-0.0395,-0.0427,-0.0433,-0.0439,-0.0474,-0.0483,-0.0373,-0.0373,-0.0373,-0.0373,0,-0.0227,-0.0238,-0.0243,-0.0261,-0.0269,-0.0281,-0.0296,-0.0308,-0.0317,-0.0333,-0.0354,-0.0357,-0.0388,-0.0372,-0.0372,-0.0409,-0.0422,-0.0415,-0.0436,-0.0444,-0.0479,-0.049,-0.0372,-0.0372,-0.0372,-0.0372,0,0,-0.0193,-0.024,-0.024,-0.0254,-0.0275,-0.0282,-0.03,-0.0324,-0.0351,-0.0359,-0.0405,-0.0391,-0.0414,-0.0423,-0.0425,-0.0447,-0.0493,-0.0455,-0.0457,-0.0498,-0.0589,-0.0552,-0.056,-0.0501,-0.0503,-0.0504,-0.0595,0,-0.0195,-0.0226,-0.0243,-0.0263,-0.0281,-0.0297,-0.0313,-0.0334,-0.0364,-0.0412,-0.0423,-0.0462,-0.0429,-0.0458,-0.0473,-0.0496,-0.0522,-0.0471,-0.0568,-0.0572,-0.0546,-0.0571,-0.051,-0.0602,-0.0605,-0.0606,-0.0608,0,-0.0185,-0.0215,-0.0242,-0.0277,-0.0284,-0.0293,-0.0332,-0.0357,-0.042,-0.0451,-0.0503,-0.0533,-0.0578,-0.0549,-0.0604,-0.058,-0.0592,-0.0596,-0.06,-0.0583,-0.0555,-0.0594,-0.0627,-0.0625,-0.0624,-0.0622,-0.0621,0,-0.0155,-0.02,-0.0225,-0.0236,-0.0283,-0.0291,-0.0315,-0.0366,-0.0406,-0.0504,-0.0554,-0.0613,-0.066,-0.0685,-0.0682,-0.0669,-0.0738,-0.0721,-0.0698,-0.0696,-0.0706,-0.0699,-0.0768,-0.0767,-0.0767,-0.0767,-0.0767,0,-0.0138,-0.0151,-0.0215,-0.0227,-0.0249,-0.0285,-0.0325,-0.0363,-0.0455,-0.05,-0.0585,-0.0626,-0.07,-0.0738,-0.0731,-0.0745,-0.0781,-0.0721,-0.0723,-0.0696,-0.0688,-0.0712,-0.0705,-0.077,-0.077,-0.0769,-0.0768,0,-0.0086,-0.0133,-0.0163,-0.0222,-0.0235,-0.0251,-0.0322,-0.0355,-0.0454,-0.0529,-0.0569,-0.0674,-0.0733,-0.078,-0.083,-0.0806,-0.0818,-0.0805,-0.0783,-0.0778,-0.0747,-0.0737,-0.0831,-0.083,-0.083,-0.083,-0.083,0,-0.0068,-0.0079,-0.0145,-0.0161,-0.0182,-0.0225,-0.0241,-0.0337,-0.037,-0.0515,-0.0526,-0.0657,-0.0706,-0.0759,-0.0807,-0.0851,-0.0822,-0.0839,-0.079,-0.0765,-0.0757,-0.0748,-0.074,-0.0829,-0.0829,-0.0829,-0.0829,0,-0.0024,-0.0044,-0.0072,-0.0112,-0.0129,-0.0153,-0.0183,-0.0213,-0.0315,-0.0425,-0.0491,-0.0579,-0.066,-0.0727,-0.0784,-0.0785,-0.0841,-0.0836,-0.0837,-0.0791,-0.0763,-0.0754,-0.0746,-0.0828,-0.0828,-0.0828,-0.0828,0,0.0021,0.0013,-0.0025,-0.0052,-0.0064,-0.0051,-0.0093,-0.013,-0.0193,-0.0353,-0.0358,-0.0498,-0.0611,-0.0691,-0.071,-0.076,-0.0761,-0.0732,-0.0738,-0.074,-0.0673,-0.0623,-0.0664,0,0,0,0,0,0.0063,0.0063,0.0039,0.0026,0.0022,0.0014,-0.0028,-0.0077,-0.0177,-0.0204,-0.0297,-0.0365,-0.0499,-0.0563,-0.0606,-0.0684,-0.0752,-0.073,-0.0715,-0.0822,-0.0823,-0.0755,0,0,0,0,0,0,0.0086,0.0085,0.0058,0.0106,0.0117,0.0127,0.0104,0.0029,0.0006,-0.0122,-0.0187,-0.0325,-0.0444,-0.0462,-0.0587,-0.0615,-0.0597,-0.083,-0.0829,-0.0821,-0.0822,-0.0823,-0.0754,0,0,0,0,0]},{"header":{"parameterUnit":"m.s-1","parameterCategory":2,"la1":30.2991,"la2":30.254,"lo1":-89.0895,"lo2":-89.0444,"dy":0.0017,"dx":0.0017,"nx":28,"ny":28,"refTime":"2023-09-28T21:00:00:Z","depth":"4","parameterNumber":3,"parameterNumberName":"V-component_of_CURRENTS"},"data":[0,0,0,0,0,0,0,0,0,0,0,0,0,0,0,0,0,0,0,0,0,0,0,0,0,0,0,0,0,0,0,0,0,0,0,0,0,0,0,0,0,0,0,0,0,0,0,0,0,0,0,0,0,0,0,0,0,0,0.0288,0.0288,0,0.03,0.03,0.03,0.0308,0.0308,0.0308,0.0308,0.0291,0.029,0.029,0,0,0,0,0,0,0,0,0,0,0,0,0,0.0278,0.0278,0.0288,0.0288,0.0288,0.03,0.03,0.03,0.0308,0.0308,0.0308,0.0308,0.0291,0.0291,0.029,0,0,0,0,0,0,0,0,0,0,0,0,0,0.0285,0.0278,0.0287,0.0294,0.0294,0.03,0.03,0.03,0.0308,0.0308,0.0308,0.0308,0.0291,0.0291,0.029,0.0282,0,0,0.0287,0.0287,0,0,0,0,0,0,0,0,0.0285,0.0285,0.0292,0.0293,0.0294,0.0303,0.029,0.0293,0.0308,0.0302,0.0308,0.0308,0.0292,0.0291,0.0293,0.0282,0.0281,0.0287,0.0287,0.0286,0.0286,0,0,0,0,0,0,0,0.0284,0.0285,0.0292,0.0293,0.0294,0.0298,0.0299,0.0291,0.0296,0.0303,0.0304,0.0306,0.0293,0.0294,0.0293,0.0281,0.0287,0.0287,0.0286,0.0286,0.0297,0.0298,0,0,0,0,0,0,0.0283,0.0284,0.0292,0.0293,0.029,0.0298,0.0299,0.03,0.0296,0.0296,0.0305,0.0306,0.0296,0.0294,0.0292,0.0299,0.0286,0.0286,0.0285,0.0296,0.0297,0.0298,0,0,0,0,0,0,0.0282,0.0283,0.0291,0.0289,0.0291,0.0298,0.0299,0.03,0.031,0.0299,0.0298,0.0315,0.0296,0.0294,0.0298,0.0297,0.0285,0.0285,0.0296,0.0297,0.0298,0.0301,0,0,0,0,0,0,0.0282,0.0283,0.0283,0.0289,0.0291,0.0301,0.0298,0.03,0.0311,0.0312,0.0307,0.0305,0.0296,0.03,0.0297,0.0296,0.0284,0.0295,0.0296,0.0297,0.03,0.0303,0.0305,0,0,0,0,0,0.0282,0.028,0.0283,0.0284,0.029,0.0302,0.0303,0.0309,0.0311,0.0318,0.0319,0.0305,0.0307,0.0299,0.0297,0.0295,0.0294,0.0296,0.0297,0.0299,0.0302,0.0304,0,0,0,0,0,0,0.0278,0.0281,0.0284,0.0284,0.0296,0.0303,0.0306,0.0314,0.0321,0.032,0.0313,0.0311,0.0314,0.0311,0.0302,0.0306,0.0299,0.0301,0.0302,0.0304,0.0307,0.0284,0.0283,0,0,0,0,0,0.0277,0.0273,0.0285,0.0285,0.029,0.0301,0.0306,0.0313,0.0319,0.0323,0.0322,0.0321,0.0318,0.0317,0.0314,0.0315,0.0325,0.0315,0.0317,0.0319,0.0301,0.0331,0.0334,0.0304,0.0304,0.0304,0,0,0.0275,0.0276,0.0274,0.0284,0.029,0.0293,0.0304,0.0315,0.0314,0.0318,0.0319,0.0326,0.0321,0.0322,0.0323,0.0319,0.0338,0.0321,0.0322,0.0303,0.0333,0.0336,0.0339,0.0305,0.0305,0.0305,0,0,0.0265,0.0272,0.0264,0.0274,0.0286,0.0292,0.0298,0.0314,0.0318,0.0327,0.0327,0.0334,0.0337,0.0329,0.0325,0.0338,0.0348,0.0348,0.0337,0.0367,0.0369,0.0371,0.0408,0.0414,0.0349,0.0349,0.0349,0,0.0262,0.0254,0.0267,0.0266,0.0266,0.0291,0.0286,0.0297,0.0313,0.0305,0.0328,0.033,0.0333,0.0318,0.033,0.0338,0.0367,0.0325,0.0368,0.037,0.0372,0.041,0.0415,0.0349,0.0349,0.0349,0.0349,0,0.0244,0.0244,0.0243,0.0242,0.0248,0.0252,0.0266,0.0271,0.0285,0.029,0.0293,0.0313,0.0313,0.0324,0.033,0.0342,0.0363,0.0368,0.0358,0.0375,0.0414,0.042,0.035,0.035,0.035,0.035,0,0,0.0222,0.0226,0.0227,0.0219,0.0235,0.0234,0.0231,0.0225,0.0212,0.0247,0.0241,0.0254,0.0279,0.0277,0.0297,0.0324,0.0378,0.0357,0.0359,0.0387,0.0463,0.0393,0.0393,0.0402,0.0402,0.0403,0.0491,0,0.0203,0.019,0.0196,0.0182,0.0176,0.0188,0.0176,0.0177,0.0188,0.0195,0.0221,0.0234,0.0259,0.0278,0.0306,0.0359,0.0391,0.0354,0.0447,0.0449,0.0378,0.0395,0.0405,0.0496,0.0497,0.0498,0.0499,0,0.0182,0.0173,0.0157,0.0137,0.0134,0.0129,0.0104,0.0103,0.0113,0.0127,0.015,0.0187,0.023,0.0263,0.0349,0.0334,0.0395,0.0437,0.0442,0.037,0.0388,0.0471,0.0509,0.0509,0.0508,0.0507,0.0506,0,0.0156,0.0142,0.0123,0.0122,0.0111,0.0093,0.0086,0.0079,0.0068,0.0104,0.011,0.0165,0.0208,0.0287,0.0369,0.0382,0.0466,0.0495,0.0483,0.048,0.0516,0.0512,0.055,0.055,0.055,0.055,0.055,0,0.0132,0.0121,0.0109,0.0103,0.0068,0.0069,0.0038,0.0037,0.0038,0.0017,0.0087,0.0095,0.0221,0.0279,0.0366,0.0428,0.0466,0.0472,0.049,0.052,0.0515,0.0521,0.0517,0.0553,0.0552,0.0552,0.0551,0,0.0127,0.0118,0.0098,0.0073,0.0063,0.0045,0.0019,-0.001,0.0,-0.0016,0.0003,0.0066,0.0144,0.0238,0.0367,0.0406,0.0484,0.0494,0.0513,0.0532,0.0492,0.0487,0.0516,0.0514,0.0512,0.0511,0.051,0,0.0126,0.0116,0.0087,0.0071,0.0065,0.0037,0.0006,-0.0013,-0.005,-0.0049,-0.0067,0.0009,0.0055,0.0187,0.0294,0.0433,0.0441,0.0488,0.0492,0.0469,0.0485,0.0482,0.0479,0.0507,0.0507,0.0506,0.0506,0,0.0128,0.0121,0.0106,0.0075,0.004,-0.0006,-0.0055,-0.0093,-0.0132,-0.0123,-0.012,-0.0045,0.0026,0.0158,0.0246,0.0347,0.0465,0.0472,0.0477,0.0481,0.046,0.0476,0.0475,0.05,0.0501,0.0502,0.0502,0,0.0137,0.0129,0.0107,0.008,0.0039,-0.0037,-0.0073,-0.013,-0.0165,-0.0191,-0.0184,-0.0087,-0.0017,0.0111,0.0195,0.0277,0.0313,0.035,0.0362,0.037,0.0285,0.0233,0.0212,0,0,0,0,0,0.0147,0.0138,0.0111,0.0067,0.0025,-0.0003,-0.0109,-0.0156,-0.0213,-0.0225,-0.0211,-0.0147,-0.0016,0.0058,0.0129,0.0172,0.0326,0.0256,0.0375,0.0469,0.0476,0.0392,0,0,0,0,0,0,0.0152,0.0137,0.0117,0.0068,0.0047,-0.0024,-0.0093,-0.015,-0.0172,-0.0198,-0.0124,-0.0103,0.0033,-0.0023,0.0157,0.0179,0.0262,0.0321,0.0322,0.0465,0.0471,0.0477,0.0393,0,0,0,0,0]}]]